{"data":{"norad_id":67578,"epoch":"2026-05-25T02:43:43.442400Z","epoch_age_seconds":65541,"freshness":"FRESH","line1":"1 67578U 26016T   26145.11369725  .00024565  00000+0  76141-3 0  9993","line2":"2 67578  97.2852 205.4070 0000498  93.8476 266.2824 15.33418688 18572","mean_motion":15.33418688,"eccentricity":4.98e-5,"inclination_deg":97.2852,"raan_deg":205.407,"arg_perigee_deg":93.8476,"mean_anomaly_deg":266.2824,"bstar":0.00076141,"rev_number":1857,"period_min":93.90781599761,"perigee_km":465.2806424261,"apogee_km":465.96228076888,"semimajor_km":6843.7584615975,"source":"CELESTRAK","updated_at":"2026-05-25T13:38:21.616843Z"}}